TimeCST,TemperatureF,Dew PointF,Humidity,Sea Level PressureIn,VisibilityMPH,Wind Direction,Wind SpeedMPH,Gust SpeedMPH,PrecipitationIn,Events,Conditions,WindDirDegrees,DateUTC
12:53 AM,10.0,3.0,73,30.27,10.0,NNW,10.4,-,N/A,,Clear,340,2013-01-26 06:53:00
1:53 AM,9.0,1.9,73,30.30,10.0,NNW,9.2,-,N/A,,Clear,330,2013-01-26 07:53:00
2:53 AM,8.1,1.9,76,30.32,10.0,NNW,9.2,-,N/A,,Clear,330,2013-01-26 08:53:00
3:53 AM,7.0,1.0,77,30.33,10.0,North,5.8,-,N/A,,Clear,350,2013-01-26 09:53:00
4:53 AM,7.0,1.0,77,30.34,10.0,North,3.5,-,N/A,,Clear,360,2013-01-26 10:53:00
5:53 AM,6.8,-0.4,72,30.29,10.0,North,5.8,-,N/A,,Clear,350,2013-01-26 11:53:00
6:53 AM,6.1,1.0,80,30.38,10.0,North,8.1,-,N/A,,Clear,10,2013-01-26 12:53:00
7:53 AM,7.0,1.9,80,30.40,10.0,Calm,Calm,-,N/A,,Clear,0,2013-01-26 13:53:00
8:53 AM,10.0,3.0,73,30.41,10.0,NNE,4.6,-,N/A,,Clear,30,2013-01-26 14:53:00
9:53 AM,14.0,5.0,67,30.42,10.0,NE,5.8,-,N/A,,Clear,50,2013-01-26 15:53:00
10:53 AM,17.1,5.0,59,30.42,10.0,Variable,5.8,-,N/A,,Clear,0,2013-01-26 16:53:00
11:53 AM,19.0,6.1,57,30.42,10.0,SSE,3.5,-,N/A,,Clear,160,2013-01-26 17:53:00
12:53 PM,21.9,6.1,51,30.39,10.0,SSW,4.6,-,N/A,,Clear,200,2013-01-26 18:53:00
1:53 PM,23.0,6.1,48,30.37,10.0,SE,4.6,-,N/A,,Scattered Clouds,140,2013-01-26 19:53:00
2:53 PM,25.0,6.1,45,30.36,10.0,South,8.1,-,N/A,,Overcast,170,2013-01-26 20:53:00
3:53 PM,25.0,7.0,46,30.35,10.0,SSE,8.1,-,N/A,,Overcast,150,2013-01-26 21:53:00
4:53 PM,25.0,8.1,49,30.35,10.0,SSE,8.1,-,N/A,,Overcast,160,2013-01-26 22:53:00
5:53 PM,24.1,9.0,53,30.34,10.0,SE,9.2,-,N/A,,Overcast,140,2013-01-26 23:53:00
6:53 PM,24.1,9.0,53,30.35,10.0,SSE,9.2,-,N/A,,Overcast,150,2013-01-27 00:53:00
7:53 PM,24.1,10.0,55,30.34,10.0,SSE,12.7,-,N/A,,Mostly Cloudy,150,2013-01-27 01:53:00
8:53 PM,24.1,10.9,57,30.32,10.0,SSE,12.7,-,N/A,,Overcast,160,2013-01-27 02:53:00
9:53 PM,24.1,12.0,60,30.33,10.0,SSE,9.2,-,N/A,,Scattered Clouds,150,2013-01-27 03:53:00
10:53 PM,24.1,12.9,62,30.32,10.0,South,15.0,-,N/A,,Mostly Cloudy,170,2013-01-27 04:53:00
11:53 PM,24.1,12.9,62,30.31,10.0,South,13.8,-,N/A,,Clear,170,2013-01-27 05:53:00